Regional Weather Roundup
Issued by NWS

Home | Current Version | Previous Version | Text Only | Print | Product List | Glossary On
Versions: 1 2 3 4 5 6 7 8 9 10 11 12 13 14 15 16 17 18 19 20 21 22 23 24 25 26 27
000
ASPQ40 PGUM 080112
RWRPQ
WEATHER ROUNDUP FOR THE MARIANAS AND MICRONESIA
NATIONAL WEATHER SERVICE TIYAN GU
1100 AM CHST THU DEC 08 2016

GUZ001>004-080200-
MARIANA ISLANDS-

CITY           SKY/WX    TMP DP  RH WIND       PRES   REMARKS
GUAM AIRPORT   CLOUDY    84  75  74 E17       29.86F HX  92
ANDERSEN AFB   PTSUNNY   81  75  83 E22       29.87F
ROTA AIRPORT   PTSUNNY   82  73  74 E21       29.88
TINIAN AP      MOSUNNY   84  73  70 E15       29.85F HX  91
SAIPAN AP      MOSUNNY   86  72  62 E21       29.87F HX  92

$$

PMZ161-080200-
REPUBLIC OF PALAU-

CITY           SKY/WX    TMP DP  RH WIND       PRES   REMARKS
KOROR AP       PTSUNNY   84  81  89 CALM      29.77F HX  98
KOROR WSO      PTSUNNY   86  77  74 SE6       29.78F HX  97

$$

PMZ171>174-080200-
FEDERATED STATES OF MICRONESIA-

CITY           SKY/WX    TMP DP  RH WIND       PRES   REMARKS
YAP AIRPORT    CLOUDY    82  77  83 E8        29.80F HX  91
CHUUK AP       CLOUDY    84  81  89 VRB5      29.75F HX  98
POHNPEI AP     LGT RAIN  79  77  94 S7        29.76F
POHNPEI WSO    LGT RAIN  79  77  94 E5        29.79F
KOSRAE AP      NOT AVBL

$$

PMZ181-080200-
REPUBLIC OF THE MARSHALL ISLANDS-

CITY           SKY/WX    TMP DP  RH WIND       PRES   REMARKS
KWAJALEIN AP   SUNNY     88  70  55 E20G26    29.75F HX  92
MAJURO AP      NOT AVBL
MAJURO WSO     PTSUNNY   86  73  66 NE13      29.72F HX  93

$$





USA.gov is the U.S. government's official web portal to all federal, state and local government web resources and services.